User: anonymous   Login
Location: Caltech
(34.1382°N, 118.1253°W)
Time: 21:06:08
(UTC-07:00)
Language:

Iridium 75 - Orbit

View from above orbital plane
View from above orbital plane
View from above satellite
View from above satellite

Ground track
Ground track

The orbit data is extracted from the following two-line orbital elements,

1 25346U 98032E   15116.33689977  .00000500  00000-0  17139-3 0  9997
2 25346 086.4012 191.3198 0002345 095.9098 307.6692 14.34217089887464
Epoch (UTC): 26 April 2015 08:05:08
Eccentricity: 0.0002345
inclination: 86.4012°
perigee height: 776 km
apogee height: 779 km
right ascension of ascending node: 191.3198°
argument of perigee: 95.9098°
revolutions per day: 14.34217089
mean anomaly at epoch: 307.6692°
orbit number at epoch: 88746

The dashed part of the orbit path shows where the satellite is in the earth's shadow,  

DLR